Voltar ao catálogo

STARLINK-4387

AtivoComunicaçõesPO
NORAD 53490·PAYLOAD·🇺🇸 United States

Lançado Aug 12, 2022 de Vandenberg Space Force Base

Loading…

Próximas Passagens (próximas 24 horas)

TLE

AtualizadoSource: CelesTrak SupGP

Época: Sep 14, 2026, 21:10 UTC

1 53490C 22099AB  26257.88243056  .00812110  00000+0  32404-2 0  2575
2 53490  97.6054  26.0566 0001724  92.4585 271.4713 15.86155100    14

Acompanhe STARLINK-4387 em tempo real com AllMySat

Download on the App Store